EW2974 Weather Reports


Display with metric or nautical units.
time (UTC)temp
F
wind
direction
speed
MPH
gust
MPH
rain 1hr
in
rain 24hr
in
rain mn
in
humidity
%
barometer
mb
20260831001905 71 245 0.0 0.0 0.00 0.02 0.02 92 1017.6
20260831001406 71 245 0.0 0.0 0.00 0.02 0.02 92 1017.5
20260831000405 71 245 0.0 0.0 0.00 0.02 0.02 92 1017.6
20260830235906 71 245 0.0 0.0 0.00 0.02 0.02 92 1017.5
20260830235406 71 245 0.0 0.0 0.00 0.02 0.02 92 1017.3
20260830234906 71 245 0.0 0.0 0.00 0.02 0.02 92 1017.2
20260830234406 71 245 0.0 0.0 0.00 0.02 0.02 91 1017.0
20260830233906 71 245 0.0 0.0 0.00 0.02 0.02 91 1017.0
20260830233406 71 245 0.0 0.0 0.00 0.02 0.02 91 1016.9
20260830232906 71 245 0.0 0.0 0.00 0.02 0.02 91 1016.8
20260830232406 71 245 0.0 0.0 0.00 0.02 0.02 90 1016.7
20260830231905 71 245 0.0 0.0 0.00 0.02 0.02 90 1016.7
20260830231406 72 245 0.0 0.0 0.00 0.02 0.02 90 1016.5
20260830230906 72 245 0.0 0.0 0.00 0.02 0.02 90 1016.4
20260830230405 72 245 0.0 0.0 0.00 0.02 0.02 90 1016.6
20260830225406 72 245 0.0 0.0 0.00 0.02 0.02 88 1016.6
20260830224905 72 245 0.0 0.0 0.00 0.02 0.02 87 1016.5
20260830223906 73 245 0.0 0.0 0.00 0.02 0.02 87 1016.3
20260830223406 73 245 0.0 0.0 0.00 0.02 0.02 88 1016.3
20260830222906 73 245 0.0 0.0 0.00 0.02 0.02 88 1016.4
20260830222405 73 245 0.0 0.0 0.00 0.02 0.02 88 1016.4
20260830221905 73 245 0.0 0.0 0.00 0.02 0.02 86 1016.3
20260830220906 73 245 0.0 0.0 0.00 0.02 0.02 89 1016.4
20260830220406 73 245 0.0 0.0 0.00 0.02 0.02 90 1016.5
20260830215906 73 245 0.0 0.0 0.00 0.02 0.02 89 1016.6
20260830215405 73 245 0.0 0.0 0.00 0.02 0.02 90 1016.6
20260830214905 73 245 0.0 0.0 0.00 0.02 0.02 90 1016.6
20260830214406 73 245 0.0 0.0 0.00 0.02 0.02 90 1016.5
20260830213406 73 245 0.0 0.0 0.01 0.02 0.02 90 1016.6
20260830211405 73 245 0.0 0.0 0.01 0.02 0.02 89 1016.7
20260830210905 73 245 0.0 0.0 0.01 0.02 0.02 89 1016.6
20260830210406 73 245 0.0 0.0 0.01 0.02 0.02 89 1016.7
20260830205906 73 245 0.0 0.0 0.01 0.02 0.02 89 1016.6
20260830205405 73 245 0.0 0.0 0.01 0.02 0.02 88 1016.7
20260830204406 73 245 0.0 0.0 0.01 0.02 0.02 88 1016.8
20260830203906 73 245 0.0 0.0 0.01 0.02 0.02 89 1016.8
20260830203406 73 245 0.0 0.0 0.00 0.01 0.01 89 1016.9
20260830202406 73 245 0.0 0.0 0.00 0.01 0.01 87 1017.0
20260830201905 73 245 0.0 0.0 0.00 0.01 0.01 86 1017.1
20260830200906 74 245 0.0 0.0 0.00 0.01 0.01 86 1017.2
20260830200405 74 245 0.0 0.0 0.00 0.01 0.01 85 1017.2
20260830195906 74 245 0.0 0.0 0.00 0.01 0.01 84 1017.2
20260830195405 74 245 0.0 0.0 0.00 0.01 0.01 84 1017.3
20260830194906 74 245 0.0 0.0 0.00 0.01 0.01 82 1017.4
20260830193906 74 245 0.0 0.0 0.00 0.01 0.01 84 1017.4
20260830193405 74 245 0.0 0.0 0.00 0.01 0.01 83 1017.5
20260830192906 74 245 0.0 0.0 0.00 0.01 0.01 82 1017.6
20260830192406 74 245 0.0 0.0 0.00 0.01 0.01 82 1017.8
20260830191405 74 245 0.0 0.0 0.00 0.01 0.01 84 1018.0
20260830190906 75 245 0.0 0.0 0.00 0.01 0.01 83 1018.0
20260830190405 75 245 0.0 0.0 0.00 0.01 0.01 82 1018.2
20260830185905 75 245 0.0 0.0 0.00 0.01 0.01 82 1018.2
20260830184905 75 245 0.0 0.0 0.00 0.01 0.01 83 1018.2
20260830184406 75 245 0.0 0.0 0.00 0.01 0.01 82 1018.2
20260830183905 75 245 0.0 0.0 0.00 0.01 0.01 83 1018.2
20260830183406 75 246 0.0 0.0 0.00 0.01 0.01 85 1018.3
20260830182905 74 246 0.0 1.0 0.00 0.01 0.01 83 1018.4
20260830182406 74 246 0.0 0.0 0.00 0.01 0.01 84 1018.5
20260830181905 74 242 0.0 0.0 0.00 0.01 0.01 83 1018.5
20260830181405 74 242 0.0 3.0 0.00 0.01 0.01 84 1018.5
20260830180905 73 242 0.0 1.0 0.00 0.01 0.01 83 1018.5
20260830180405 74 242 0.0 0.0 0.00 0.01 0.01 85 1018.6
20260830175905 73 242 0.0 1.0 0.00 0.01 0.01 84 1018.7
20260830175406 73 242 0.0 1.0 0.00 0.01 0.01 86 1018.7
20260830174905 73 242 0.0 0.0 0.00 0.01 0.01 86 1018.7
20260830174406 73 242 0.0 0.0 0.00 0.01 0.01 86 1018.8
20260830173905 73 206 0.0 5.0 0.01 0.01 0.01 85 1018.9
20260830172905 73 257 0.0 5.0 0.01 0.01 0.01 85 1019.0
20260830172406 73 253 1.0 5.0 0.01 0.01 0.01 89 1019.0
20260830171905 72 252 0.0 1.0 0.01 0.01 0.01 88 1019.1
20260830171405 72 252 1.0 3.0 0.01 0.01 0.01 90 1019.2
20260830170905 72 229 0.0 0.0 0.01 0.01 0.01 91 1019.1
20260830170406 72 229 0.0 0.0 0.01 0.01 0.01 91 1019.2
20260830165905 72 229 0.0 0.0 0.01 0.01 0.01 90 1019.3
20260830165406 71 229 0.0 0.0 0.01 0.01 0.01 91 1019.3
20260830164905 71 229 0.0 0.0 0.01 0.01 0.01 91 1019.4
20260830163905 71 229 0.0 0.0 0.00 0.00 0.00 91 1019.4
20260830163406 71 229 0.0 0.0 0.00 0.00 0.00 89 1019.4
20260830162405 71 229 0.0 0.0 0.00 0.00 0.00 93 1019.4
20260830161906 71 229 0.0 0.0 0.00 0.00 0.00 92 1019.3
20260830161405 71 229 0.0 0.0 0.00 0.00 0.00 93 1019.3
20260830160405 70 229 0.0 0.0 0.00 0.00 0.00 92 1019.3
20260830155905 70 229 0.0 0.0 0.00 0.00 0.00 92 1019.3
20260830155405 70 229 0.0 0.0 0.00 0.00 0.00 92 1019.4
20260830154905 70 229 0.0 0.0 0.00 0.00 0.00 92 1019.4
20260830154406 70 229 0.0 0.0 0.00 0.00 0.00 91 1019.6
20260830153405 70 229 0.0 0.0 0.00 0.00 0.00 92 1019.4
20260830152905 69 229 0.0 0.0 0.00 0.00 0.00 91 1019.3
20260830152405 69 229 0.0 0.0 0.00 0.00 0.00 92 1019.3
20260830151408 69 229 0.0 0.0 0.00 0.00 0.00 91 1019.5
20260830150906 69 229 0.0 0.0 0.00 0.00 0.00 91 1019.4
20260830150405 69 229 0.0 0.0 0.00 0.00 0.00 90 1019.1
20260830145405 69 229 0.0 0.0 0.00 0.00 0.00 90 1019.0
20260830144905 69 229 0.0 0.0 0.00 0.00 0.00 90 1018.9
20260830144406 69 229 0.0 0.0 0.00 0.00 0.00 89 1018.8
20260830142406 69 229 0.0 0.0 0.00 0.00 0.00 88 1018.5
20260830141905 69 229 0.0 0.0 0.00 0.00 0.00 88 1018.3
20260830141405 69 229 0.0 0.0 0.00 0.00 0.00 87 1018.4
20260830140905 69 229 0.0 0.0 0.00 0.00 0.00 85 1018.3
20260830140405 70 229 0.0 0.0 0.00 0.00 0.00 84 1018.2
20260830135905 70 229 0.0 0.0 0.00 0.00 0.00 84 1018.2
20260830135405 70 229 0.0 0.0 0.00 0.00 0.00 84 1018.2
20260830134905 70 229 0.0 0.0 0.00 0.00 0.00 84 1018.2
20260830134405 70 229 0.0 0.0 0.00 0.00 0.00 84 1018.1
20260830133906 70 229 0.0 0.0 0.00 0.00 0.00 83 1018.1
20260830133405 69 229 0.0 0.0 0.00 0.00 0.00 83 1018.0
20260830132407 69 229 0.0 0.0 0.00 0.00 0.00 85 1018.0
20260830131907 69 229 0.0 0.0 0.00 0.00 0.00 85 1018.0
20260830125905 68 231 0.0 0.0 0.00 0.00 0.00 86 1018.2
20260830125404 67 231 0.0 0.0 0.00 0.00 0.00 86 1018.2
20260830124405 67 223 0.0 0.0 0.00 0.00 0.00 88 1018.2
20260830123904 66 223 0.0 0.0 0.00 0.00 0.00 86 1018.2
20260830122905 66 223 0.0 0.0 0.00 0.00 0.00 89 1018.2
20260830122405 65 223 0.0 0.0 0.00 0.00 0.00 91 1018.2
20260830121904 64 223 0.0 0.0 0.00 0.00 0.00 90 1018.2
20260830121404 64 223 0.0 0.0 0.00 0.00 0.00 92 1018.3
20260830120905 64 223 0.0 0.0 0.00 0.00 0.00 93 1018.3
20260830120404 64 223 0.0 1.0 0.00 0.00 0.00 94 1018.2
20260830115905 63 223 0.0 0.0 0.00 0.00 0.00 94 1018.2
20260830115404 63 223 0.0 0.0 0.00 0.00 0.00 94 1018.2
20260830114904 63 223 0.0 0.0 0.00 0.00 0.00 94 1018.1
20260830114405 63 223 0.0 0.0 0.00 0.00 0.00 94 1018.1
20260830113904 63 223 0.0 0.0 0.00 0.00 0.00 94 1018.2
20260830113405 63 223 0.0 0.0 0.00 0.00 0.00 94 1018.2
20260830112905 63 223 0.0 0.0 0.00 0.00 0.00 94 1018.1
20260830112404 63 223 0.0 0.0 0.00 0.00 0.00 94 1018.1
20260830111405 63 223 0.0 0.0 0.00 0.00 0.00 94 1018.2
20260830110904 63 223 0.0 0.0 0.00 0.00 0.00 94 1018.2
20260830110405 63 223 0.0 0.0 0.00 0.00 0.00 94 1018.1
20260830105905 63 223 0.0 0.0 0.00 0.00 0.00 94 1018.1
20260830105405 63 223 0.0 0.0 0.00 0.00 0.00 94 1018.0
20260830104904 63 223 0.0 0.0 0.00 0.00 0.00 94 1018.0
20260830104405 63 223 0.0 0.0 0.00 0.00 0.00 93 1018.0
20260830103905 63 223 0.0 0.0 0.00 0.00 0.00 93 1018.0
20260830103405 63 223 0.0 0.0 0.00 0.00 0.00 94 1018.0
20260830102905 63 223 0.0 0.0 0.00 0.00 0.00 94 1018.0
20260830102404 63 223 0.0 0.0 0.00 0.00 0.00 94 1018.0
20260830101904 62 223 0.0 0.0 0.00 0.00 0.00 94 1018.1
20260830101404 62 223 0.0 0.0 0.00 0.00 0.00 93 1018.1
20260830100905 62 223 0.0 0.0 0.00 0.00 0.00 93 1018.2
20260830100404 62 223 0.0 0.0 0.00 0.00 0.00 93 1018.1
20260830095904 62 223 0.0 0.0 0.00 0.00 0.00 93 1018.1
20260830095404 62 223 0.0 0.0 0.00 0.00 0.00 93 1018.1
20260830094904 62 223 0.0 0.0 0.00 0.00 0.00 93 1018.1
20260830094404 62 223 0.0 0.0 0.00 0.00 0.00 93 1018.0
20260830093405 62 223 0.0 0.0 0.00 0.00 0.00 93 1018.1
20260830092406 62 223 0.0 0.0 0.00 0.00 0.00 93 1018.0
20260830091904 62 223 0.0 0.0 0.00 0.00 0.00 93 1017.9
20260830091404 63 223 0.0 0.0 0.00 0.00 0.00 93 1017.9
20260830090905 63 223 0.0 0.0 0.00 0.00 0.00 94 1017.9
20260830090406 63 223 0.0 0.0 0.00 0.00 0.00 93 1017.7
20260830085905 63 223 0.0 0.0 0.00 0.00 0.00 93 1017.7
20260830085404 63 223 0.0 0.0 0.00 0.00 0.00 93 1017.8
20260830084904 63 223 0.0 0.0 0.00 0.00 0.00 93 1017.9
20260830084404 62 223 0.0 0.0 0.00 0.00 0.00 93 1017.9
20260830083404 62 223 0.0 0.0 0.00 0.00 0.00 93 1018.0
20260830082904 62 223 0.0 0.0 0.00 0.00 0.00 93 1018.0
20260830082405 62 223 0.0 0.0 0.00 0.00 0.00 93 1018.2
20260830081905 62 223 0.0 0.0 0.00 0.00 0.00 93 1018.2
20260830080905 62 223 0.0 0.0 0.00 0.00 0.00 93 1018.2
20260830080405 62 223 0.0 0.0 0.00 0.00 0.00 94 1018.1
20260830075904 62 223 0.0 0.0 0.00 0.00 0.00 94 1018.1
20260830075405 62 223 0.0 0.0 0.00 0.00 0.00 94 1018.1
20260830074905 62 223 0.0 0.0 0.00 0.00 0.00 94 1018.1
20260830074404 62 223 0.0 0.0 0.00 0.00 0.00 94 1018.1
20260830073904 62 223 0.0 0.0 0.00 0.00 0.00 94 1018.2
20260830073404 62 223 0.0 0.0 0.00 0.00 0.00 94 1018.2
20260830072404 62 223 0.0 0.0 0.00 0.00 0.00 93 1018.3
20260830071404 62 223 0.0 0.0 0.00 0.00 0.00 93 1018.4
20260830070904 62 223 0.0 0.0 0.00 0.00 0.00 93 1018.4
20260830065905 62 223 0.0 0.0 0.00 0.00 0.00 93 1018.3
20260830064405 62 223 0.0 0.0 0.00 0.00 0.00 93 1018.4
20260830063904 62 223 0.0 0.0 0.00 0.00 0.00 93 1018.4
20260830062904 62 223 0.0 0.0 0.00 0.00 0.00 93 1018.4
20260830062405 61 223 0.0 0.0 0.00 0.00 0.00 93 1018.4
20260830061404 61 223 0.0 0.0 0.00 0.00 0.00 93 1018.5
20260830060904 61 223 0.0 0.0 0.00 0.00 0.00 93 1018.6
20260830055904 61 223 0.0 0.0 0.00 0.00 0.00 93 1018.7
20260830054904 61 223 0.0 0.0 0.00 0.00 0.00 93 1018.7
20260830053904 62 223 0.0 0.0 0.00 0.00 0.00 92 1018.7
20260830052904 62 223 0.0 0.0 0.00 0.00 0.00 93 1018.7
20260830052404 61 223 0.0 0.0 0.00 0.00 0.00 93 1018.6
20260830051904 61 223 0.0 0.0 0.00 0.00 0.00 92 1018.7
20260830050904 61 223 0.0 0.0 0.00 0.00 0.00 92 1018.8
20260830045905 62 223 0.0 0.0 0.00 0.00 0.00 92 1018.4
20260830045404 62 223 0.0 0.0 0.00 0.00 0.00 92 1018.6
20260830044904 62 223 0.0 0.0 0.00 0.00 0.00 92 1018.6
20260830044404 62 223 0.0 0.0 0.00 0.00 0.00 92 1018.5
20260830043904 62 223 0.0 0.0 0.00 0.00 0.00 92 1018.5
20260830043404 62 223 0.0 0.0 0.00 0.00 0.00 92 1018.5
20260830042404 62 223 0.0 0.0 0.00 0.00 0.00 92 1018.4
20260830041905 62 223 0.0 0.0 0.00 0.00 0.00 92 1018.4
20260830040404 63 223 0.0 0.0 0.00 0.00 0.00 92 1018.5
20260830035904 63 223 0.0 0.0 0.00 0.00 0.00 92 1018.5
20260830035404 63 223 0.0 0.0 0.00 0.00 0.00 92 1018.2
20260830034904 63 223 0.0 0.0 0.00 0.00 0.00 92 1018.2
20260830033904 63 223 0.0 0.0 0.00 0.00 0.00 92 1018.3
20260830033405 63 223 0.0 0.0 0.00 0.00 0.00 92 1018.3
20260830032404 63 223 0.0 0.0 0.00 0.00 0.00 91 1018.3
20260830031904 63 223 0.0 0.0 0.00 0.00 0.00 91 1018.3
20260830031405 64 223 0.0 0.0 0.00 0.00 0.00 91 1018.3
20260830030904 64 223 0.0 0.0 0.00 0.00 0.00 91 1018.3
20260830030404 64 223 0.0 0.0 0.00 0.00 0.00 91 1018.5
20260830025904 64 223 0.0 0.0 0.00 0.00 0.00 91 1018.5
20260830025404 64 223 0.0 0.0 0.00 0.00 0.00 91 1018.5
20260830024904 64 223 0.0 0.0 0.00 0.00 0.00 90 1018.5
20260830024404 64 223 0.0 0.0 0.00 0.00 0.00 90 1018.6
20260830023904 64 223 0.0 0.0 0.00 0.00 0.00 90 1018.6
20260830023404 64 223 0.0 0.0 0.00 0.00 0.00 89 1018.5
20260830022904 65 223 0.0 0.0 0.00 0.00 0.00 89 1018.6
20260830022404 65 223 0.0 0.0 0.00 0.00 0.00 89 1018.7
20260830021904 65 223 0.0 0.0 0.00 0.00 0.00 89 1018.7
20260830020404 65 223 0.0 0.0 0.00 0.00 0.00 88 1019.0
20260830015904 65 223 0.0 0.0 0.00 0.00 0.00 88 1018.9
20260830015404 66 223 0.0 0.0 0.00 0.00 0.00 87 1018.9
20260830014904 66 223 0.0 0.0 0.00 0.00 0.00 87 1018.8
20260830013904 66 223 0.0 0.0 0.00 0.00 0.00 86 1018.8
20260830012904 67 223 0.0 0.0 0.00 0.00 0.00 86 1018.7
20260830012405 67 223 0.0 0.0 0.00 0.00 0.00 86 1018.8
20260830011904 67 223 0.0 0.0 0.00 0.00 0.00 86 1018.7
20260830010904 67 223 0.0 0.0 0.00 0.00 0.00 86 1018.5
20260830010404 67 223 0.0 0.0 0.00 0.00 0.00 85 1018.8
20260830005905 67 223 0.0 0.0 0.00 0.00 0.00 84 1018.8
20260830005404 68 223 0.0 0.0 0.00 0.00 0.00 84 1018.8
20260830004904 68 223 0.0 0.0 0.00 0.00 0.00 84 1018.9
20260830004404 68 223 0.0 0.0 0.00 0.00 0.00 84 1018.8
20260830003904 68 223 0.0 0.0 0.00 0.00 0.00 84 1018.8
20260830003404 68 223 0.0 0.0 0.00 0.00 0.00 84 1018.7
20260830002904 69 223 0.0 0.0 0.00 0.00 0.00 84 1018.6
20260830002404 69 223 0.0 0.0 0.00 0.00 0.00 84 1018.6